Weather History for Danville, IL

Change the Weather History Date:

Tuesday, May 7, 2013

  Actual Average (KLAF) Record (KLAF)
Temperature  
Mean Temperature 65 °F 59 °F  
Max Temperature 75 °F 70 °F 86 °F (2014)
Min Temperature 55 °F 48 °F 0 °F (1956)
Degree Days  
Heating Degree Days 0 7  
Month to date heating degree days 54  
Since 1 July heating degree days 5544  
Cooling Degree Days 0 1  
Month to date cooling degree days 7  
Year to date cooling degree days 20  
Growing Degree Days 15 (Base 50)    
Moisture  
Dew Point 51 °F    
Average Humidity 64    
Maximum Humidity 89    
Minimum Humidity 40    
Precipitation  
Precipitation 0.00 in 0.13 in 1.30 in (1998)
Month to date precipitation 0.90  
Year to date precipitation 10.73  
Sea Level Pressure  
Sea Level Pressure 29.97 in    
Wind  
Wind Speed 4 mph (NNE)    
Max Wind Speed 13 mph    
Max Gust Speed 16 mph    
Visibility 7 miles    
Events Rain    
T = Trace of Precipitation, MM = Missing Value Source: NWS Daily Summary

Daily Weather History Graph

Daily Weather History Graph

Search for Another Location

Airport:

Trip Planner

Search our weather history database for the weather conditions in past years. The results will help you decide how hot, cold, wet, or windy it might be!

Date:

Astronomy

May. 07, 2013 Rise Set
Actual Time 5:42 AM CDT 7:51 PM CDT
Civil Twilight 5:12 AM CDT 8:21 PM CDT
Nautical Twilight 4:35 AM CDT 8:58 PM CDT
Astronomical Twilight 3:55 AM CDT 9:39 PM CDT
Moon 4:16 AM CDT (5/7) 5:51 PM CDT (5/7)
Length of Visible Light 15h 09m
Length of Day
14h 09m
Waning Crescent, 5% of the Moon is Illuminated
May 7
Waning Crescent
May 9
New
May 17
First Quarter
May 24
Full
May 31
Last Quarter

Hourly Weather History & Observations

Time (CDT) Temp. Dew Point Humidity Pressure Visibility Wind Dir Wind Speed Gust Speed Precip Events Conditions
12:15 AM 60.6 °F 54.7 °F 81% 29.97 in 7.0 mi Calm Calm - N/A Rain Rain
12:35 AM 59.9 °F 54.9 °F 83% 29.96 in 10.0 mi North 4.6 mph - N/A Rain Rain
12:55 AM 60.3 °F 54.5 °F 81% 29.96 in 7.0 mi Calm Calm - N/A Rain Rain
1:15 AM 59.0 °F 54.9 °F 86% 29.96 in 7.0 mi Calm Calm - N/A Rain Rain
1:35 AM 59.0 °F 54.9 °F 86% 29.96 in 7.0 mi Calm Calm - N/A Rain Rain
1:55 AM 58.6 °F 54.5 °F 86% 29.96 in 7.0 mi Calm Calm - N/A Rain Heavy Rain
2:15 AM 57.9 °F 54.7 °F 89% 29.96 in 10.0 mi North 5.8 mph - N/A Rain Rain
2:35 AM 58.6 °F 53.4 °F 83% 29.96 in 7.0 mi North 5.8 mph - N/A Rain Heavy Rain
2:55 AM 58.5 °F 52.2 °F 80% 29.96 in 7.0 mi North 5.8 mph - N/A Rain Rain
3:15 AM 58.8 °F 50.7 °F 74% 29.96 in 7.0 mi Calm Calm - N/A Rain Heavy Rain
3:35 AM 58.3 °F 52.3 °F 81% 29.96 in 7.0 mi Calm Calm - N/A Rain Rain
3:55 AM 58.1 °F 50.7 °F 76% 29.96 in 7.0 mi NW 5.8 mph - N/A Rain Rain
4:15 AM 57.6 °F 50.9 °F 78% 29.96 in 7.0 mi NW 3.5 mph - N/A Rain Heavy Rain
4:35 AM 56.5 °F 51.4 °F 83% 29.96 in 7.0 mi Calm Calm - N/A Rain Heavy Rain
4:55 AM 56.5 °F 50.2 °F 79% 29.96 in 7.0 mi NW 3.5 mph - N/A Rain Rain
5:15 AM 55.8 °F 49.5 °F 79% 29.97 in 7.0 mi Calm Calm - N/A Rain Rain
5:35 AM 55.4 °F 50.7 °F 84% 29.97 in 7.0 mi Calm Calm - N/A Rain Rain
5:55 AM 55.4 °F 50.0 °F 82% 29.97 in 7.0 mi WNW 3.5 mph - N/A Rain Rain
6:15 AM 55.4 °F 50.2 °F 83% 29.97 in 7.0 mi WNW 5.8 mph - N/A Rain Rain
6:35 AM 55.4 °F 48.0 °F 76% 29.97 in 7.0 mi NW 8.1 mph - N/A Rain Heavy Rain
6:55 AM 55.4 °F 48.2 °F 77% 29.98 in 7.0 mi Calm Calm - N/A Rain Rain
7:15 AM 55.6 °F 48.2 °F 76% 29.98 in 7.0 mi North 5.8 mph - N/A Rain Rain
7:35 AM 55.8 °F 46.6 °F 71% 29.98 in 7.0 mi North 5.8 mph - N/A Rain Heavy Rain
7:55 AM 55.9 °F 47.1 °F 72% 30.00 in 7.0 mi North 3.5 mph - N/A Rain Heavy Rain
8:15 AM 56.7 °F 46.9 °F 70% 30.00 in 5.0 mi North 4.6 mph - N/A Rain Rain
8:35 AM 56.8 °F 47.1 °F 70% 30.00 in 7.0 mi North 5.8 mph - N/A Rain Rain
8:55 AM 57.2 °F 47.8 °F 71% 30.00 in 5.0 mi North 6.9 mph - N/A Rain Heavy Rain
9:15 AM 58.8 °F 47.8 °F 67% 30.00 in 7.0 mi NNW 5.8 mph - N/A Rain Heavy Rain
9:35 AM 59.9 °F 47.3 °F 63% 30.00 in 7.0 mi NNW 5.8 mph - N/A Rain Rain
9:55 AM 61.2 °F 47.7 °F 61% 30.00 in 7.0 mi North 5.8 mph - N/A Rain Heavy Rain
10:15 AM 62.6 °F 48.7 °F 60% 30.00 in 7.0 mi North 4.6 mph - N/A Rain Rain
10:35 AM 64.8 °F 50.7 °F 60% 30.00 in 5.0 mi NNE 6.9 mph - N/A Rain Heavy Rain
10:55 AM 66.4 °F 52.7 °F 61% 29.99 in 5.0 mi NE 5.8 mph - N/A Rain Heavy Rain
11:15 AM 69.3 °F 54.5 °F 59% 29.99 in 7.0 mi NE 6.9 mph - N/A Rain Rain
11:35 AM 68.5 °F 54.7 °F 61% 29.99 in 7.0 mi NNE 5.8 mph - N/A Rain Heavy Rain
11:55 AM 70.7 °F 55.0 °F 58% 29.99 in 7.0 mi NE 8.1 mph - N/A Rain Rain
12:15 PM 72.1 °F 55.4 °F 56% 29.98 in 10.0 mi ENE 6.9 mph - N/A Rain Rain
12:35 PM 73.9 °F 54.7 °F 51% 29.98 in 10.0 mi ENE 9.2 mph - N/A Rain Rain
12:55 PM 73.8 °F 52.2 °F 47% 29.97 in 10.0 mi ENE 12.7 mph - N/A Rain Rain
1:15 PM 73.4 °F 51.3 °F 46% 29.97 in 10.0 mi ENE 9.2 mph 16.1 mph N/A Rain Rain
1:35 PM 73.4 °F 51.4 °F 46% 29.97 in 7.0 mi East 9.2 mph - N/A Rain Rain
1:55 PM 74.3 °F 52.0 °F 46% 29.96 in 10.0 mi East 8.1 mph - N/A Rain Rain
2:15 PM 74.3 °F 51.6 °F 45% 29.96 in 10.0 mi East 9.2 mph - N/A Rain Rain
2:35 PM 74.3 °F 50.7 °F 43% 29.96 in 7.0 mi East 6.9 mph - N/A Rain Rain
2:55 PM 73.8 °F 51.1 °F 45% 29.95 in 7.0 mi ENE 6.9 mph - N/A Rain Heavy Rain
3:15 PM 74.3 °F 50.7 °F 43% 29.95 in 7.0 mi East 4.6 mph - N/A Rain Rain
3:35 PM 74.1 °F 51.3 °F 45% 29.95 in 7.0 mi East 3.5 mph - N/A Rain Rain
3:55 PM 74.7 °F 51.8 °F 45% 29.94 in 7.0 mi North 3.5 mph - N/A Rain Rain
4:15 PM 74.7 °F 50.7 °F 43% 29.94 in 10.0 mi NNE 8.1 mph - N/A Rain Rain
4:35 PM 74.7 °F 48.7 °F 40% 29.94 in 7.0 mi ENE 5.8 mph - N/A Rain Rain
4:55 PM 75.2 °F 50.0 °F 41% 29.94 in 7.0 mi North 3.5 mph - N/A Rain Rain
5:15 PM 74.3 °F 51.1 °F 44% 29.94 in 7.0 mi NE 4.6 mph - N/A Rain Heavy Rain
5:35 PM 74.7 °F 50.7 °F 43% 29.94 in 7.0 mi ENE 6.9 mph - N/A Rain Rain
5:55 PM 74.7 °F 50.0 °F 42% 29.94 in 7.0 mi ENE 6.9 mph - N/A Rain Rain
6:15 PM 74.3 °F 49.6 °F 42% 29.94 in 7.0 mi ENE 6.9 mph - N/A Rain Rain
6:35 PM 74.3 °F 50.4 °F 43% 29.94 in 10.0 mi ENE 5.8 mph - N/A Rain Rain
6:55 PM 72.9 °F 49.8 °F 44% 29.94 in 10.0 mi ENE 4.6 mph - N/A Rain Heavy Rain
7:15 PM 71.6 °F 50.2 °F 47% 29.94 in 10.0 mi NE 3.5 mph - N/A Rain Rain
7:35 PM 70.5 °F 50.0 °F 48% 29.94 in 7.0 mi NE 3.5 mph - N/A Rain Rain
7:55 PM 70.5 °F 48.7 °F 46% 29.95 in 7.0 mi NE 3.5 mph - N/A Rain Rain
8:15 PM 66.6 °F 53.6 °F 63% 29.95 in 10.0 mi Calm Calm - N/A Rain Rain
8:35 PM 66.4 °F 52.0 °F 60% 29.96 in 7.0 mi North 3.5 mph - N/A Rain Heavy Rain
8:55 PM 64.6 °F 53.1 °F 66% 29.97 in 7.0 mi NW 5.8 mph - N/A Rain Rain
9:15 PM 65.7 °F 52.9 °F 63% 29.97 in 10.0 mi NNW 5.8 mph - N/A Rain Rain
9:35 PM 62.1 °F 54.1 °F 75% 29.97 in 7.0 mi North 4.6 mph - N/A Rain Heavy Rain
9:55 PM 62.6 °F 54.3 °F 74% 29.98 in 7.0 mi NNE 8.1 mph - N/A Rain Rain
10:15 PM 63.0 °F 54.5 °F 74% 29.98 in 7.0 mi NNE 8.1 mph - N/A Rain Heavy Rain
10:35 PM 62.4 °F 54.7 °F 76% 29.98 in 7.0 mi NE 4.6 mph - N/A Rain Heavy Rain
10:55 PM 64.9 °F 53.1 °F 65% 29.97 in 7.0 mi NE 3.5 mph - N/A Rain Rain
11:15 PM 61.9 °F 53.6 °F 74% 29.97 in 7.0 mi NE 3.5 mph - N/A Rain Heavy Rain
11:35 PM 60.8 °F 53.6 °F 77% 29.97 in 7.0 mi NNE 4.6 mph - N/A Rain Rain
11:55 PM 60.8 °F 53.6 °F 77% 29.97 in 5.0 mi NNE 3.5 mph - N/A Rain Rain